www.pogodaiklimat.ru

Погода и климат >> Архив погоды >> Россия >> Ханты-Мансийский АО >> Приполярный


ПОГОДА в Приполярном

  • Прогноз погоды в Приполярном
  • Монитор погоды в Приполярном

АРХИВ ПОГОДЫ в Приполярном

Время (UTC), дата Ветер
(напр.,м/с)
 
Видим.   Явления Облачность Т
(С)
Тd
(С)
f
(%)
Тe
(С)
Тes
(С)
Комфортность P
(гПа)
Po
(гПа)
Тmin
(С)
Tmax
(С)
R
(мм)
R24
(мм)
S
(см)
15 11.09 СЗ 3 н/о н/о +13.3 +12.0 92 +12 +12 1017.7 984.6 +16.6
18 11.09 СЗ 1 н/о н/о +10.2 +9.9 98 +10 +10 1016.8 983.4
00 12.09 СЗ 3 н/о н/о +11.9 +9.8 87 +10 +10 1017.3 984.1
03 12.09 В 1 н/о н/о +11.7 +9.8 88 +12 +12 1019.2 985.9 +10.1
06 12.09 СЗ 2 н/о н/о +15.1 +8.1 63 +15 +15 1019.3 986.3
09 12.09 СЗ 2 н/о н/о +17.8 +6.2 47 +18 +18 1018.4 985.7
12 12.09 СЗ 2 н/о н/о +16.1 +7.1 55 +16 +16 1017.5 984.7
15 12.09 СЗ 3 н/о н/о +13.4 +8.9 74 +12 +12 1016.4 983.3 +18.2
18 12.09 СЗ 2 н/о н/о +11.5 +10.1 91 +10 +10 1014.8 981.6
21 12.09 З 1 н/о н/о +11.8 -1.6 39 +12 +12 1012.7 979.5
00 13.09 СЗ 2 н/о н/о +11.6 -29.3 4 +11 +11 1010.9 977.7
03 13.09 СЗ 2 н/о н/о +11.8 +11.2 96 +11 +11 1009.6 976.6 +10.7
06 13.09 СЗ 2 н/о н/о +14.1 +13.5 96 +13 +13 1008.1 975.4
09 13.09 СЗ 3 н/о н/о +16.2 +11.3 73 +16 +16 1007.8 975.3
12 13.09 СЗ 1 н/о н/о +15.7 +10.6 72 +16 +16 1007.5 975.1
15 13.09 СЗ 1 н/о н/о +13.4 +11.3 87 +14 +14 1007.4 974.6 +17.7
18 13.09 СЗ 1 н/о н/о +11.2 +10.8 97 +11 +11 1006.7 973.8
21 13.09 СЗ 1 н/о н/о +11.6 +11.1 97 +11 +11 1005.8 972.9
00 14.09 СЗ 1 н/о н/о +10.1 -30.4 4 +11 +11 1005.4 972.2
03 14.09 СЗ 1 н/о н/о +10.7 -29.9 4 +11 +11 1005.1 972.0 +9.0
06 14.09 З 3 н/о н/о +13.8 +12.6 92 +13 +13 1004.4 971.8
09 14.09 СЗ 2 н/о н/о +16.2 +11.3 73 +16 +16 1003.8 971.5
12 14.09 З 2 н/о н/о +17.5 +10.2 62 +18 +18 1003.0 970.8
15 14.09 Ю 2 н/о н/о +13.2 +12.4 95 +12 +12 1003.1 970.5 +18.1
18 14.09 ЮВ 3 н/о н/о +9.9 -30.5 4 +9 +9 1002.7 969.5
21 14.09 Ю 1 н/о н/о +8.4 -31.6 4 +9 +9 1001.4 968.1
00 15.09 Ю 1 н/о н/о +7.5 -32.3 4 +8 +8 1000.0 966.7
03 15.09 СЗ 2 н/о н/о +7.6 -32.2 4 +7 +7 999.7 966.4 +7.3
06 15.09 СЗ 4 н/о н/о +10.3 +7.9 85 +8 +8 998.6 965.7
09 15.09 СЗ 6
{12}
н/о н/о +13.1 +3.2 51 +11 +11 997.7 965.2
12 15.09 СЗ 3
{12}
н/о н/о +14.7 +3.0 45 +14 +14 997.2 964.9
15 15.09 СЗ 3 н/о н/о +9.8 +2.6 61 +8 +8 997.3 964.4 +14.9
18 15.09 СЗ 3 н/о н/о +7.1 +3.2 76 +4 +4 997.0 963.8
21 15.09 штиль 0 н/о н/о +2.6 +2.5 99 +1 +1 996.6 962.9
00 16.09 СЗ 1 н/о н/о +2.3 +2.2 99 0 0 996.0 962.3
03 16.09 СЗ 3 н/о н/о +4.1 +4.0 99 0 0 994.7 961.3 +1.2
06 16.09 З 4 н/о н/о +7.5 +2.7 72 +4 +4 994.6 961.5
09 16.09 СЗ 3 н/о н/о +7.9 +2.9 71 +5 +5 994.8 961.8
12 16.09 СЗ 4 н/о н/о +8.0 +1.8 65 +5 +5 994.6 961.6
15 16.09 штиль 0 н/о н/о +4.1 +2.6 90 +3 +3 994.7 961.2 +9.6
18 16.09 штиль 0 н/о н/о +0.8 +0.7 99 -1 -1 994.3 960.5
21 16.09 СЗ 1 н/о н/о +0.3 +0.2 99 -2 -2 992.9 959.0
00 17.09 СЗ 1 н/о н/о +1.4 +1.3 99 -1 -1 991.5 957.9
03 17.09 Ю 1 н/о н/о +0.8 +0.7 99 -1 -1 990.6 956.9 -0.2
06 17.09 ЮЗ 1 н/о н/о +1.9 -36.2 4 +2 +2 990.2 956.5
09 17.09 ЮЗ 1 н/о н/о +3.4 -35.1 4 +3 +3 990.3 956.8
12 17.09 ЮЗ 1 н/о н/о +4.7 -34.2 4 +5 +5 990.9 957.5

 

Местоположение метеостанции Приполярный (Ханты-Мансийский АО, Россия): широта 63.20 долгота 59.80 высота над уровнем моря 281 м.

В архиве по умолчанию представлена погода в Приполярном за последнюю неделю. Архивные данные за месяц целиком и за предыдущие месяцы, начиная с января 2011 года, Вы можете получить, выбрав интересующий диапазон дат из раскрывающегося списка и нажав кнопку "Ввод!".


*Определитесь, кто Вы:
робот инопланетянин человек

Внимание! Время в таблицах - всемирное. Для получения местного времени необходимо прибавить поправку, которая равна 5 ч.

Смотрите также архив погоды в соседних городах и на ближайших метеорологических станциях:

Погода в Няксимволе (Ханты-Мансийский АО, Россия) (101 км)
Погода в Сосьве (Ханты-Мансийский АО, Россия) (125 км)
Погода в Саранпауле (Ханты-Мансийский АО, Россия) (131 км)
Погода в Вуктыле (Коми, Россия) (141 км)
Погода в Усть-Щугоре (Коми, Россия) (160 км)
Погода в Троицко-Печорском (Коми, Россия) (190 км)
Погода в Якше (Коми, Россия) (214 км)
Погода в Бурмантово (Свердловская область, Россия) (216 км)
Погода в Агирише (Ханты-Мансийский АО, Россия) (218 км)
Погода в Игриме (Ханты-Мансийский АО, Россия) (233 км)

Пояснения к столбцам:

Ветер - указаны скорость ветра в м/с - средняя за 10 мин, порывы в срок и между сроками (в фигурных скобках) и направление, откуда дует ветер: С - северный, СВ - северо-восточный, В - восточный, ЮВ - юго-восточный, Ю - южный, ЮЗ - юго-западный, З - западный, СЗ - северо-западный.
Видимость - горизонтальная дальность видимости в метрах или километрах. При видимости от 1 до 10 км при отсутствии осадков обычно наблюдается дымка, при ухудшении видимости до 1 км и менее - туман. В сухую погоду видимость может ухудшаться дымом, пылью или мглою.
Явления - указаны атмосферные явления, наблюдавшиеся в срок или в последний час перед сроком; фигурными скобками обозначены явления, наблюдавшиеся между сроками (за 1-3 часа до срока); квадратными скобками обозначены град или гололедные отложения с указанием их диаметра в мм.
Облачность - указаны через наклонную черту общая и нижняя облачность в баллах и высота нижней границы облаков в метрах; квадратными скобками обозначены формы облаков: Ci - перистые, Cs - перисто-слоистые, Cc - перисто-кучевые, Ac - высококучевые, As - высокослоистые, Sc - слоисто-кучевые, Ns - слоисто-дождевые, Cu - кучевые, Cb - кучево-дождевые. Подробнее классификацию облаков см. в Атласе облаков (PDF).
T - Температура воздуха - температура, измеренная на высоте 2 м над землей.
Td - Температура точки росы - температура, при понижении до которой содержащийся в воздухе водяной пар достигнет насыщения.
f - Относительная влажность воздуха - влажноcть воздуха, измеренная на высоте 2 м над землей.
Te - Эффективная температура - температура, которую ощущает одетый по сезону человек в тени. Характеристика душности погоды. При расчете учитывается влияние влажности воздуха и скорости ветра на теплоощущения человека.
Tes - Эффективная температура на солнце - температура, которую ощущает человек, с поправкой на солнечный нагрев. Характеристика знойности погоды. Зависит от высоты солнца над горизонтом, облачности и скорости ветра. Ночью, в пасмурную погоду, а также при ветре 12 м/с и более поправка равна нулю.
P - Атмосферное давление - приведенное к уровню моря атмосферное давление.
Po - Атмосферное давление - измеренное на уровне метеостанции атмосферное давление.
Tmin - Минимальная температура - минимум температуры воздуха на высоте 2 м над землей.
Tmax - Максимальная температура - максимум температуры воздуха на высоте 2 м над землей.
R - Количество осадков - Количество выпавших осадков за период времени, мм. При наведении курсора мыши на число - период времени, за который выпало указанное количество осадков.
R24 - Количество осадков - Количество выпавших осадков за 24 часа, мм.
S - Снежный покров - Высота снежного покрова, см. При наведении курсора мыши на число - состояние снежного покрова и степень покрытия местности в баллах.